Вернуться в каталог

FENGYUN 1C DEB

АктивенPO
NORAD 31807·DEBRIS·🇨🇳 China

Запущен May 10, 1999 с Taiyuan Satellite Launch Center

Loading…

Ближайшие Пролёты (ближайшие 24 часа)

TLE

СвежийSource: Space-Track

Эпоха: Sep 14, 2026, 04:19 UTC

1 31807U 99025CGV 26257.18000884  .00001465  00000-0  33963-3 0  9998
2 31807  99.1103  56.2275 0103302  55.4426 305.6464 14.53598246693054

Отслеживайте FENGYUN 1C DEB в реальном времени с AllMySat

Download on the App Store